Notices

What's New in latest Release from April 7th, 2021:

- Updated Glossary, including Speed of Maximum Gust, and Total Hourly Precipitation

- Updated national and regional climate services offices contacts and prices information

- Addition of station inventory lists for 1981-2010, 1971-2000, and 1961-1990 Normals.

If you haven't already, please take our survey and provide feedback about our website: https://eccc.sondage-survey.ca/f/LanguageSelection.aspx?s=442ca660-fcf1-47c0-95a9-59707d6fd709

Hourly Data Report for March 10, 2021

NANAIMO A
BRITISH COLUMBIA
Current Station Operator: NAVCAN

49°03'16.000" N
123°52'12.000" W
28.00 m
1025365
YCD

Download Data

Hourly Data (March 2021)
Hourly Data Report for March 10, 2021
TIME
LST
Temp Definition
°C
Dew Point Definition
°C
Rel Hum Definition
%
Precip. Amount Definition
mm

Wind Dir Definition
10's deg

Wind Spd Definition
km/h
Visibility Definition
km
Stn Press Definition
kPa
Hmdx Definition


Wind Chill Definition


Weather Definition


00:00 2.2 -0.1 85 LegendMM 27 15 LegendMM 101.21     LegendNANA
01:00 2.4 -0.3 83 LegendMM 26 14 LegendMM 101.21     LegendNANA
02:00 2.5 -0.3 81 LegendMM 27 15 LegendMM 101.20     LegendNANA
03:00 2.2 -0.3 83 LegendMM 26 16 LegendMM 101.18     LegendNANA
04:00 1.5 -0.5 86 LegendMM 27 7 LegendMM 101.19     LegendNANA
05:00 -0.1 -1.6 90 LegendMM 17 7 LegendMM 101.16   -3 LegendNANA
06:00 -0.7 -1.1 97 LegendMM 26 7 LegendMM 101.16   -3 LegendNANA
07:00 0.0 -0.8 94 LegendMM 11 1 LegendMM 101.16   0 LegendNANA
08:00 1.8 0.4 91 LegendMM 11 2 LegendMM 101.19     LegendNANA
09:00 4.4 0.6 76 LegendMM 27 5 LegendMM 101.23     LegendNANA
10:00 5.2 1.7 78 LegendMM 16 10 LegendMM 101.25     LegendNANA
11:00 7.1 2.4 72 LegendMM 15 8 LegendMM 101.28     LegendNANA
12:00 9.4 0.7 55 LegendMM 7 2 LegendMM 101.29     LegendNANA
13:00 9.1 0.7 55 LegendMM 6 15 LegendMM 101.29     LegendNANA
14:00 10.1 0.7 52 LegendMM 3 10 LegendMM 101.28     LegendNANA
15:00 9.5 -0.3 50 LegendMM 36 13 LegendMM 101.32     LegendNANA
16:00 9.0 0.4 55 LegendMM 3 10 LegendMM 101.34     LegendNANA
17:00 8.7 -0.3 53 LegendMM 35 10 LegendMM 101.36     LegendNANA
18:00 6.0 0.0 65 LegendMM 1 8 LegendMM 101.45     LegendNANA
19:00 4.3 0.9 79 LegendMM 24 8 LegendMM 101.53     LegendNANA
20:00 2.7 -0.2 81 LegendMM 25 7 LegendMM 101.59     LegendNANA
21:00 2.5 -0.9 78 LegendMM 23 7 LegendMM 101.66     LegendNANA
22:00 2.1 -1.0 80 LegendMM 26 8 LegendMM 101.72     LegendNANA
23:00 2.8 -1.2 75 LegendMM 26 9 LegendMM 101.77     LegendNANA

Notes on Data Quality.

Legend

  • E = Estimated
  • M = Missing
  • NA = Not Available*
  • [empty] = Indicates an unobserved value
Date modified: